| time (UTC) | temp C | wind direction | speed KPH | gust KPH | rain 1hr cm | rain 24hr cm | rain mn cm | humidity % | barometer mb |
| 20260505100034 | 6 | 4 | 6.4 | 12.9 | 0.00 | 0.00 | 0.00 | 68 | 1008.9 |
| 20260505094624 | 6 | 4 | 4.8 | 9.7 | 0.00 | 0.00 | 0.00 | 70 | 1009.0 |
| 20260505093048 | 6 | 4 | 0.0 | 0.0 | 0.00 | 0.00 | 0.00 | 68 | 1009.0 |
| 20260505091539 | 6 | 4 | 0.0 | 8.0 | 0.00 | 0.00 | 0.00 | 69 | 1008.7 |
| 20260505090127 | 6 | 4 | 0.0 | 0.0 | 0.00 | 0.00 | 0.00 | 71 | 1008.8 |
| 20260505084539 | 6 | 4 | 0.0 | 0.0 | 0.00 | 0.00 | 0.00 | 72 | 1008.9 |
| 20260505083001 | 6 | 4 | 0.0 | 0.0 | 0.00 | 0.00 | 0.00 | 71 | 1009.1 |
| 20260505081608 | 6 | 4 | 0.0 | 0.0 | 0.00 | 0.00 | 0.00 | 70 | 1009.1 |
| 20260505080004 | 6 | 4 | 0.0 | 0.0 | 0.00 | 0.00 | 0.00 | 69 | 1009.0 |
| 20260505074557 | 7 | 4 | 0.0 | 0.0 | 0.00 | 0.00 | 0.00 | 69 | 1008.8 |
| 20260505073015 | 7 | 4 | 0.0 | 0.0 | 0.00 | 0.00 | 0.00 | 66 | 1008.8 |
| 20260505071600 | 8 | 4 | 1.6 | 17.7 | 0.00 | 0.00 | 0.00 | 66 | 1008.5 |
| 20260505070022 | 8 | 4 | 1.6 | 14.5 | 0.00 | 0.00 | 0.00 | 64 | 1008.3 |
| 20260505064608 | 8 | 4 | 4.8 | 19.3 | 0.00 | 0.00 | 0.00 | 64 | 1008.4 |
| 20260505063033 | 8 | 8 | 6.4 | 24.1 | 0.00 | 0.00 | 0.00 | 64 | 1008.6 |
| 20260505061626 | 8 | 4 | 8.0 | 25.7 | 0.00 | 0.00 | 0.00 | 65 | 1008.5 |
| 20260505060053 | 8 | 4 | 9.7 | 22.5 | 0.00 | 0.00 | 0.00 | 65 | 1008.3 |
| 20260505054521 | 8 | 4 | 3.2 | 14.5 | 0.00 | 0.00 | 0.00 | 63 | 1008.2 |
| 20260505053112 | 8 | 4 | 3.2 | 9.7 | 0.00 | 0.00 | 0.00 | 62 | 1008.2 |
| 20260505051523 | 8 | 359 | 11.3 | 16.1 | 0.00 | 0.00 | 0.00 | 60 | 1008.1 |
| 20260505050130 | 9 | 4 | 6.4 | 14.5 | 0.00 | 0.00 | 0.00 | 57 | 1007.9 |
| 20260505041605 | 11 | 4 | 8.0 | 19.3 | 0.00 | 0.00 | 0.00 | 50 | 1007.5 |
| 20260505040010 | 11 | 4 | 19.3 | 35.4 | 0.00 | 0.00 | 0.00 | 51 | 1007.2 |
| 20260505034600 | 11 | 4 | 14.5 | 27.4 | 0.00 | 0.00 | 0.00 | 49 | 1007.3 |
| 20260505033045 | 12 | 4 | 8.0 | 22.5 | 0.00 | 0.00 | 0.00 | 45 | 1007.1 |
| 20260505031631 | 12 | 8 | 0.0 | 9.7 | 0.00 | 0.00 | 0.00 | 42 | 1006.6 |
| 20260505030053 | 13 | 4 | 6.4 | 17.7 | 0.00 | 0.00 | 0.00 | 41 | 1006.2 |
| 20260505024518 | 13 | 4 | 12.9 | 22.5 | 0.00 | 0.00 | 0.00 | 40 | 1006.0 |
| 20260505023104 | 13 | 359 | 8.0 | 16.1 | 0.00 | 0.00 | 0.00 | 38 | 1006.0 |
| 20260505021525 | 13 | 4 | 8.0 | 20.9 | 0.00 | 0.00 | 0.00 | 37 | 1005.8 |
| 20260505020110 | 14 | 4 | 14.5 | 27.4 | 0.00 | 0.00 | 0.00 | 36 | 1005.2 |
| 20260505014524 | 16 | 4 | 0.0 | 6.4 | 0.00 | 0.00 | 0.00 | 27 | 1004.7 |
| 20260505013122 | 16 | 4 | 3.2 | 8.0 | 0.00 | 0.00 | 0.00 | 27 | 1004.2 |
| 20260505011545 | 17 | 4 | 4.8 | 9.7 | 0.00 | 0.00 | 0.00 | 27 | 1004.0 |
| 20260505010134 | 17 | 4 | 3.2 | 12.9 | 0.00 | 0.00 | 0.00 | 26 | 1003.5 |
| 20260505004545 | 17 | 4 | 1.6 | 9.7 | 0.00 | 0.00 | 0.00 | 26 | 1003.6 |
| 20260505003004 | 17 | 4 | 1.6 | 14.5 | 0.00 | 0.00 | 0.00 | 26 | 1003.5 |
| 20260505001604 | 18 | 4 | 11.3 | 25.7 | 0.00 | 0.00 | 0.00 | 24 | 1003.7 |
| 20260505000004 | 18 | 4 | 3.2 | 17.7 | 0.00 | 0.00 | 0.00 | 24 | 1003.5 |
| 20260504234615 | 18 | 4 | 3.2 | 14.5 | 0.00 | 0.00 | 0.00 | 24 | 1003.6 |
| 20260504233020 | 18 | 4 | 0.0 | 4.8 | 0.00 | 0.00 | 0.00 | 25 | 1003.6 |
| 20260504231602 | 18 | 4 | 3.2 | 9.7 | 0.00 | 0.00 | 0.00 | 25 | 1003.6 |
| 20260504230018 | 18 | 4 | 1.6 | 19.3 | 0.00 | 0.00 | 0.00 | 26 | 1003.7 |
| 20260504224606 | 18 | 4 | 9.7 | 24.1 | 0.00 | 0.00 | 0.00 | 25 | 1003.6 |
| 20260504223004 | 18 | 4 | 3.2 | 24.1 | 0.00 | 0.00 | 0.00 | 27 | 1003.9 |
| 20260504221555 | 18 | 4 | 3.2 | 17.7 | 0.00 | 0.00 | 0.00 | 27 | 1004.0 |
| 20260504220012 | 18 | 4 | 4.8 | 16.1 | 0.00 | 0.00 | 0.00 | 27 | 1004.3 |
| 20260504214619 | 18 | 4 | 4.8 | 19.3 | 0.00 | 0.00 | 0.00 | 27 | 1004.4 |
| 20260504213053 | 18 | 4 | 4.8 | 27.4 | 0.00 | 0.00 | 0.00 | 27 | 1004.6 |
| 20260504211627 | 18 | 4 | 4.8 | 17.7 | 0.00 | 0.00 | 0.00 | 28 | 1004.9 |
| 20260504210040 | 18 | 4 | 6.4 | 19.3 | 0.00 | 0.00 | 0.00 | 28 | 1005.2 |
| 20260504204627 | 18 | 4 | 11.3 | 37.0 | 0.00 | 0.00 | 0.00 | 28 | 1005.6 |
| 20260504203105 | 18 | 4 | 11.3 | 29.0 | 0.00 | 0.00 | 0.00 | 26 | 1005.7 |
| 20260504201517 | 18 | 4 | 4.8 | 38.6 | 0.00 | 0.00 | 0.00 | 25 | 1005.8 |
| 20260504200052 | 19 | 4 | 17.7 | 37.0 | 0.00 | 0.00 | 0.00 | 24 | 1006.1 |
| 20260504194517 | 19 | 4 | 8.0 | 30.6 | 0.00 | 0.00 | 0.00 | 24 | 1005.9 |
| 20260504193111 | 19 | 4 | 11.3 | 33.8 | 0.00 | 0.00 | 0.00 | 24 | 1006.0 |
| 20260504191522 | 19 | 4 | 11.3 | 35.4 | 0.00 | 0.00 | 0.00 | 24 | 1006.0 |
| 20260504190120 | 19 | 4 | 11.3 | 40.2 | 0.00 | 0.00 | 0.00 | 25 | 1005.7 |
| 20260504184517 | 20 | 4 | 11.3 | 22.5 | 0.00 | 0.00 | 0.00 | 25 | 1005.9 |
| 20260504183105 | 19 | 4 | 11.3 | 35.4 | 0.00 | 0.00 | 0.00 | 25 | 1006.4 |
| 20260504181516 | 18 | 4 | 6.4 | 27.4 | 0.00 | 0.00 | 0.00 | 28 | 1006.3 |
| 20260504180105 | 18 | 4 | 9.7 | 25.7 | 0.00 | 0.00 | 0.00 | 28 | 1007.1 |
| 20260504174512 | 18 | 4 | 4.8 | 17.7 | 0.00 | 0.00 | 0.00 | 29 | 1007.2 |
| 20260504173057 | 17 | 4 | 4.8 | 22.5 | 0.00 | 0.00 | 0.00 | 30 | 1007.4 |
| 20260504171518 | 18 | 4 | 4.8 | 22.5 | 0.00 | 0.00 | 0.00 | 29 | 1007.7 |
| 20260504160109 | 17 | 4 | 4.8 | 24.1 | 0.00 | 0.00 | 0.00 | 30 | 1007.7 |
| 20260504150103 | 13 | 4 | 6.4 | 22.5 | 0.00 | 0.00 | 0.00 | 43 | 1008.3 |